TITAN 3C TRANSTAGE DEB, 1680

Orbit data source: Space-Track

TITAN 3C TRANSTAGE DEB, 1680 is space debris in LEO originally from a launch on Fri, 15 Oct 1965 UTC launched from the Air Force Eastern Test Range (AFETR). Debris objects in space refer to the collection of defunct objects orbiting the Earth. Examples of debris include non-operational satellites, rocket bodies, and fragments generated from explosions, collisions, or faulty payload assembly.

Loading next visibility...
Identifier
1680, 1965-082AT
Orbit
LEO
Country
Flag of USUS
Related business
Manufacturer
Unknown
Mission
Spacecraft
Bus & Motor
Unknown
Mass
Unknown
Launch date (UTC)
1965-10-15 (60 years ago)
Launch vehicle
Unknown
Launch site
Air Force Eastern Test Range (AFETR)
Object type
Payload
Rocket body
Debris
Shape & HBR
Unknown
Radar Cross Section
2.100 m², Large (>1 m²)

Expand to show TLE details & history
Last TLE update: 1 day ago

TLE from 1 day ago
0 TITAN 3C TRANSTAGE DEB
1 01680U 65082AT  25260.29528855  .00000396  00000-0  65211-4 0  9992
2 01680  32.2568 345.4449 0020840 286.7621  73.0741 14.65427464173592
Epoch: 2025-09-17T07:05Z
TLE epoch observation values (Epoch: 2025-09-17T07:05:12.93Z)
Latitude
-0.00001°
Longitude
-117.33229°
Altitude
670.113 km
Speed
7.526 km/s
True Right ascension
23h 01m 46s
True Declination
0° 00' 00"
Sunlit
Object was in full shadow at epoch
Visualization orbit readout
Latitude
Unknown
Longitude
Unknown
Altitude
Unknown
Speed
Unknown
Apparent Right ascension
Unknown
Apparent Declination
Unknown
Sunlit
N/A
Visualization observer readout
Local Sidereal Time
03:20:26
Azimuth
Unknown
Elevation
Unknown
Doppler factor
Unknown
Orbital elements
Apogee altitude
693.993 km
Perigee altitude
664.577 km
Semi-major axis
7,057.422 km
Eccentricity
0.00208
Inclination
32.2568°
RAAN
345.4449°
Arg. of periapsis
286.7621°
True anomaly
73.30274°
Mean anomaly
73.0741°
Eccentric anomaly
73.1884°
Mean motion
3.66078 °/min
Orbital period
98.34 mins
BSTAR
0.000065211
Loading maneuver chart data...
Computing Atmospheric mass density...

Documentation

Showing up to 5 results
|